Regional Weather Roundup
Issued by NWS Upton, NY

Current Version | Previous Version | Text Only | Print | Product List | Glossary Off
Versions: 1 2 3 4 5 6 7 8 9 10 11 12 13 14 15 16 17 18 19 20 21 22 23 24 25 26 27 28 29 30 31 32 33 34 35 36 37 38 39 40 41 42 43 44 45 46 47 48 49 50
000 ASUS41 KOKX 012105 RWROKX REGIONAL WEATHER ROUNDUP NATIONAL WEATHER SERVICE NEW YORK NY 500 PM EDT WED OCT 01 2014 NOTE: "FAIR" INDICATES FEW OR NO CLOUDS BELOW 12,000 FEET WITH NO SIGNIFICANT WEATHER AND/OR OBSTRUCTIONS TO VISIBILITY. NYZ071-072-176-178-NJZ106-104-012200- NEW YORK CITY METRO AREA CITY SKY/WX TMP DP RH WIND PRES REMARKS CENTRAL PARK LGT RAIN 63 60 90 NE3 30.06S FOG LAGUARDIA APRT CLOUDY 63 59 87 NE8 30.03S KENNEDY INTL CLOUDY 65 58 78 N13 30.04R NEWARK/LIBERTY LGT RAIN 64 60 87 N10 30.04R BRNX BOT. GARD N/A 63 59 88 CALM 30.06S TETERBORO LGT RAIN 64 59 83 N3 30.03R HAZE $$ NYZ177-179-078>081-012200- LONG ISLAND NEW YORK CITY SKY/WX TMP DP RH WIND PRES REMARKS FARMINGDALE CLOUDY 63 59 87 NE12 30.03R ISLIP CLOUDY 62 59 90 NE9 30.00S SHIRLEY CLOUDY 62 60 93 N7 30.03R WESTHAMPTON LGT RAIN 61 58 90 N14 30.03R FOG MONTAUK POINT N/A 61 58 90 N9G20 30.03R $$ NYZ052-065-067-012200- HUDSON VALLEY CITY SKY/WX TMP DP RH WIND PRES REMARKS WHITE PLAINS PTSUNNY 63 57 81 NE6 30.03S NEWBURGH CLOUDY 63 59 88 NE9 30.06S MONTGOMERY CLOUDY 64 57 78 N10 30.05S POUGHKEEPSIE CLOUDY 64 59 83 N6 30.04S ALBANY CLOUDY 63 56 78 N5 30.07F $$ NJZ001-105-106-008-010-013-015-019>022-104-012200- NEW JERSEY CITY SKY/WX TMP DP RH WIND PRES REMARKS NEWARK/LIBERTY LGT RAIN 64 60 87 N10 30.04R TETERBORO LGT RAIN 64 59 83 N3 30.03R HAZE CALDWELL CLOUDY 65 57 75 NE6 30.04S MORRISTOWN CLOUDY 66 59 77 NE6 30.05R SOMERVILLE CLOUDY 67 57 70 VRB5 30.02R LINDEN CLOUDY 68 62 80 NE10 30.05R SUSSEX CLOUDY 67 58 72 NE5 30.05S ANDOVER N/A 64 57 78 VRB3 30.05S TRENTON CLOUDY 67 56 67 NE8 30.02S MILLVILLE CLOUDY 69 58 67 NE13 30.01R ATLANTIC CITY CLOUDY 66 60 81 N12 30.01R WRIGHTSTOWN CLOUDY 64 59 82 N10 30.00S TOMS RIVER CLOUDY 64 59 82 NE3 30.02S BELMAR CLOUDY 63 55 77 N7 30.02S $$ PAZ047>061-062-071-012200- EASTERN PENNSYLVANIA CITY SKY/WX TMP DP RH WIND PRES REMARKS PHILADELPHIA MOSUNNY 71 57 61 NE10 30.01S ALLENTOWN PTSUNNY 71 55 56 NE9 30.03R SCRANTON PTSUNNY 70 53 54 VRB6 30.03R $$ CTZ002-004>006-009-010-012-RIZ004-006-007-MAZ004-011-015-012200- SOUTHERN NEW ENGLAND IN CT CITY SKY/WX TMP DP RH WIND PRES REMARKS BRADLEY INTL CLOUDY 61 57 87 N8 30.05S HARTFORD CLOUDY 61 56 83 N10G17 30.05S DANBURY CLOUDY 62 56 80 N8 30.06S WTRBRY/OXFORD CLOUDY 59 54 82 NE12 30.07R BRIDGEPORT CLOUDY 64 59 83 NE12 30.03S MERIDEN LGT RAIN 61 58 90 N8 30.04S NEW HAVEN CLOUDY 65 59 81 N10 30.03S CHESTER CLOUDY 57 57 100 N6 30.04S GROTON CLOUDY 59 58 96 N7 30.02R WILLIMANTIC CLOUDY 59 55 87 N10 30.05S IN RI CITY SKY/WX TMP DP RH WIND PRES REMARKS PROVIDENCE LGT RAIN 58 56 93 N14 30.04R BLOCK ISLAND CLOUDY 61 55 82 N13 30.01R WESTERLY CLOUDY 60 57 89 N8 30.03R IN MA CITY SKY/WX TMP DP RH WIND PRES REMARKS BOSTON LGT RAIN 56 55 97 NE14 30.07R FOG WORCESTER CLOUDY 54 53 97 NE10G21 30.08S FOG WESTFIELD CLOUDY 60 57 89 N8 30.06F PROVINCETOWN CLOUDY 61 57 88 NE15 30.05R NANTUCKET LGT RAIN 61 60 97 NE17 29.98R FOG $$ ANZ330-335-338-340-345-350-353-355-012200- COASTAL MARINE OBSERVATIONS STATION/POSITION TIME SKY/WX TEMP WIND PRES VSBY WAVE AIR SEA DIR/SP/G HT/PER (UTC) (F) (DEG/KT/KT) (MB) (MI) (FT/S) NY HARB ENTRANCE NOT AVBL 4S FIRE IS 2000 68 N/A 3/ 6 20S FIRE ISLAND 2100 62 67 30/ 17/ 21 1015.5 4/ 6 23SW MTP 2100 N/A 5/ 6 HUDSON CANYON 2100 65 70 10/ 21/ 25 1013.8 6/ 7 EXECUTION ROCKS 2100 64 68 10/ 10/ 14 N/A WESTERN LI SOUND 2000 64 30/ 12/ 14 N/A 1/ 4 CENTRAL LI SOUND 2100 61 68 20/ 16/ 19 N/A 2/ 3 EASTERN LI SOUND 2000 62 66 10/ 12/ 16 N/A ROBBINS REEF 2100 63 10/ 11/ 13 1015.7 $$ >>>>>>>>>>>>>>>>>>>>>>>>>>>> KEY <<<<<<<<<<<<<<<<<<<<<<<<<<< > < > SKY/WX - SKY CONDITION/PRESENT WEATHER < > TMP - TEMPERATURE IN FAHRENHEIT < > DP - DEWPOINT IN FAHRENHEIT < > RH - RELATIVE HUMIDITY IN PERCENT < > WIND - DIRECTION AND SPEED IN MPH < > PRES - MEAN SEA LEVEL PRESSURE IN INCHES OF HG < > WCI - WIND CHILL INDEX < > VSB - VISIBILITY IN MILES < > HX - HEAT INDEX < > TC - TEMPERATURE IN CELSIUS < > VRB - VARIABLE WIND DIRECTION < > < >>>>>>>>>>>>>>>>>>>>>>>>>>>> KEY <<<<<<<<<<<<<<<<<<<<<<<<<<<

USA.gov is the U.S. government's official web portal to all federal, state and local government web resources and services.